Regional Weather Roundup
Issued by NWS Cleveland, OH

Home | Current Version | Previous Version | Text Only | Print | Product List | Glossary Off
Versions: 1 2 3 4 5 6 7 8 9 10 11 12 13 14 15 16 17 18 19 20 21 22 23 24 25 26 27 28 29 30 31 32 33 34 35 36 37 38 39 40 41 42 43 44 45 46 47 48 49 50

207
ASUS41 KCLE 171902
RWRCLE
OHIO REGIONAL WEATHER ROUNDUP
NATIONAL WEATHER SERVICE CLEVELAND, OH
200 PM EST TUE JAN 17 2017

NOTE: "FAIR" INDICATES FEW OR NO CLOUDS BELOW 12,000 FEET WITH NO
SIGNIFICANT WEATHER AND/OR OBSTRUCTIONS TO VISIBILITY.

OHZ001>008-015>018-024>027-034-035-043-044-172000-
   NORTHWEST OHIO

CITY           SKY/WX    TMP DP  RH WIND       PRES   REMARKS
DEFIANCE       CLOUDY    49  44  83 W13G20    29.82S
FINDLAY        CLOUDY    54  45  71 W20G28    29.81F
TOLEDO EXPRESS CLOUDY    47  46  97 W22G29    29.80R
TOLEDO EXEC    CLOUDY    50  47  89 SW14      29.80S
LIMA           CLOUDY    53  47  79 SW20G28   29.83F
$$

OHZ009>014-019>023-028>033-038-089-172000-
   NORTHEAST OHIO

CITY           SKY/WX    TMP DP  RH WIND       PRES   REMARKS
CLE-HOPKINS    CLOUDY    59  48  67 W16G25    29.81S
CLE-LAKEFRONT  CLOUDY    54  47  77 SW15      29.77S
CUY CO. ARPT   CLOUDY    61 N/A N/A W14       29.78F
LORAIN-ELYRIA  CLOUDY    55  46  71 W22G29    29.80S
ASHTABULA      CLOUDY    55  53  93 SW10      29.78F
AKRON-CANTON   CLOUDY    59  49  69 W15       29.80F
WOOSTER        CLOUDY    56  47  71 W24G30    29.81S
MANSFIELD      CLOUDY    54  47  77 W15G23    29.82S
YOUNGSTOWN     LGT RAIN  55  53  93 W8        29.80F FOG
$$

OHZ042-051>053-060>062-070>072-077>081-172000-
  SOUTHWEST OHIO

CITY           SKY/WX    TMP DP  RH WIND       PRES   REMARKS
CINC-COVINGTON PTSUNNY   57  50  77 W20G32    29.89F
CINC-LUNKEN    PTSUNNY   60  52  74 W14       29.90S
HAMILTON       CLOUDY    60  50  69 SW18G30   29.90S
DAYTON         CLOUDY    54  48  80 W17G24    29.87F
WRIGHT-PAT AFB PTSUNNY   58  50  76 SW18G26   29.86F
DAYTON GENERAL CLOUDY    56  49  77 SW15G22   29.87F
WILMINGTON     PTSUNNY   59  52  77 W14       29.87F
$$

OHZ036-037-039>041-045>050-054>059-063>069-073>076-082>088-172000-
  CENTRAL AND SOUTHEAST OHIO

CITY           SKY/WX    TMP DP  RH WIND       PRES   REMARKS
COLUMBUS       CLOUDY    61  51  70 W16       29.85S
OSU AIRPORT    CLOUDY    58  51  78 W16G26    29.85S
BOLTON FIELD   CLOUDY    57  52  82 MISG      29.87S
RICKENBACK AFB   N/A     59  52  77 W14G22    29.86S
NEWARK         PTSUNNY   62  52  69 W14       29.83S
MARION         CLOUDY    55  48  77 W15G23    29.84F
LANCASTER      CLOUDY    62  52  69 W10G21    29.85S
ZANESVILLE     CLOUDY    64  53  67 SW10G21   29.82F
NEW PHILLY     NOT AVBL
$$




USA.gov is the U.S. government's official web portal to all federal, state and local government web resources and services.